When you browse on this site, cookies collect data to enhance your experience and personalize the content and advertising you see.
Visit our Privacy Policy to learn more. By continuing to use the site, you agree to this use of cookies and data.
  • In Lithuania
  • List of Countries
  • For 7 days
  • Water Temperature
  • Weather Map
  • Weather Widgets
  • user-avatar
    Login

    Hourly Weather Lubango

    Today, 14 October, Monday

    Time Temperature Precipitation Wind Pressure Humidity
    00:00 +15°C° 0 mm 0 mps 609 mmHg 84%
    01:00 +16°C° 0 mm 1 mps 609 mmHg 82%
    02:00 +16°C° 0 mm 1 mps 608 mmHg 85%
    03:00 +16°C° 0 mm 1 mps 608 mmHg 87%
    04:00 +15°C° 0 mm 2 mps 607 mmHg 89%
    05:00 +16°C° 0 mm 2 mps 608 mmHg 87%
    06:00 +16°C° 0 mm 2 mps 608 mmHg 85%
    07:00 +17°C° 0 mm 2 mps 609 mmHg 82%
    08:00 +19°C° 0 mm 3 mps 610 mmHg 71%
    09:00 +21°C° 0 mm 3 mps 610 mmHg 61%
    10:00 +24°C° 0 mm 3 mps 611 mmHg 51%
    11:00 +26°C° 0.1 mm 3 mps 611 mmHg 46%
    12:00 +27°C° 0.1 mm 3 mps 611 mmHg 40%
    13:00 +28°C° 0.1 mm 2 mps 611 mmHg 35%
    14:00 +27°C° 0.2 mm 2 mps 610 mmHg 42%
    15:00 +25°C° 0.2 mm 2 mps 608 mmHg 48%
    16:00 +23°C° 0.2 mm 2 mps 607 mmHg 55%
    17:00 +21°C° 0.1 mm 2 mps 608 mmHg 62%
    18:00 +20°C° 0.1 mm 2 mps 608 mmHg 68%
    19:00 +19°C° 0.1 mm 2 mps 608 mmHg 75%
    20:00 +18°C° 0.1 mm 2 mps 609 mmHg 79%
    21:00 +19°C° 0.1 mm 1 mps 609 mmHg 83%
    22:00 +18°C° 0.1 mm 1 mps 609 mmHg 88%
    23:00 +18°C° 0.2 mm 1 mps 609 mmHg 87%

    Tomorrow, 15 October, Tuesday

    Time Temperature Precipitation Wind Pressure Humidity
    00:00 +18°C° 0.2 mm 1 mps 609 mmHg 87%
    01:00 +18°C° 0.2 mm 1 mps 608 mmHg 86%
    02:00 +18°C° 0.1 mm 1 mps 608 mmHg 83%
    03:00 +18°C° 0.1 mm 1 mps 608 mmHg 80%
    04:00 +17°C° 0.1 mm 0 mps 608 mmHg 76%
    05:00 +19°C° 0.1 mm 1 mps 608 mmHg 74%
    06:00 +19°C° 0.1 mm 1 mps 609 mmHg 72%
    07:00 +20°C° 0.1 mm 1 mps 609 mmHg 70%
    08:00 +21°C° 0.1 mm 2 mps 610 mmHg 62%
    09:00 +24°C° 0.1 mm 2 mps 611 mmHg 54%
    10:00 +26°C° 0.1 mm 2 mps 611 mmHg 46%
    11:00 +26°C° 0.5 mm 2 mps 611 mmHg 44%
    12:00 +27°C° 0.5 mm 2 mps 610 mmHg 42%
    13:00 +27°C° 0.5 mm 2 mps 610 mmHg 41%
    14:00 +26°C° 0.8 mm 2 mps 609 mmHg 48%
    15:00 +24°C° 0.8 mm 2 mps 608 mmHg 54%
    16:00 +23°C° 0.8 mm 2 mps 607 mmHg 61%
    17:00 +21°C° 0.9 mm 2 mps 607 mmHg 65%
    18:00 +20°C° 0.9 mm 2 mps 608 mmHg 70%
    19:00 +20°C° 0.9 mm 1 mps 608 mmHg 74%
    20:00 +20°C° 0 mm 1 mps 608 mmHg 75%
    21:00 +20°C° 0 mm 1 mps 608 mmHg 77%
    22:00 +19°C° 0 mm 1 mps 608 mmHg 78%
    23:00 +19°C° 0 mm 1 mps 608 mmHg 80%

    Day after tomorrow, 16 October, Wednesday

    Time Temperature Precipitation Wind Pressure Humidity
    00:00 +19°C° 0 mm 1 mps 608 mmHg 81%
    01:00 +18°C° 0 mm 1 mps 608 mmHg 82%
    02:00 +18°C° 0 mm 1 mps 607 mmHg 82%
    03:00 +18°C° 0 mm 1 mps 607 mmHg 82%
    04:00 +18°C° 0 mm 1 mps 607 mmHg 82%
    05:00 +16°C° 0 mm 0 mps 608 mmHg 80%
    06:00 +17°C° 0 mm 0 mps 608 mmHg 77%
    07:00 +17°C° 0 mm 0 mps 609 mmHg 75%
    08:00 +21°C° 0 mm 1 mps 610 mmHg 66%
    09:00 +23°C° 0 mm 1 mps 610 mmHg 57%
    10:00 +25°C° 0 mm 1 mps 610 mmHg 48%
    11:00 +27°C° 0 mm 2 mps 610 mmHg 41%
    12:00 +29°C° 0 mm 2 mps 611 mmHg 34%
    13:00 +30°C° 0 mm 3 mps 611 mmHg 28%
    14:00 +29°C° 0.3 mm 3 mps 610 mmHg 34%
    15:00 +28°C° 0.3 mm 3 mps 609 mmHg 40%
    16:00 +26°C° 0.3 mm 3 mps 608 mmHg 47%
    17:00 +24°C° 0.5 mm 2 mps 608 mmHg 56%
    18:00 +23°C° 0.5 mm 2 mps 608 mmHg 65%
    19:00 +20°C° 0.5 mm 2 mps 608 mmHg 74%
    20:00 +19°C° 0.4 mm 2 mps 608 mmHg 77%
    21:00 +19°C° 0.4 mm 1 mps 608 mmHg 80%
    22:00 +19°C° 0.4 mm 1 mps 609 mmHg 83%
    23:00 +18°C° 0 mm 1 mps 608 mmHg 82%

    17 October, Thursday

    Time Temperature Precipitation Wind Pressure Humidity
    00:00 +18°C° 0 mm 1 mps 608 mmHg 82%
    01:00 +18°C° 0 mm 1 mps 608 mmHg 81%
    02:00 +18°C° 0 mm 1 mps 608 mmHg 82%
    03:00 +15°C° 0 mm 0 mps 608 mmHg 83%
    04:00 +15°C° 0 mm 0 mps 607 mmHg 85%
    05:00 +16°C° 0 mm 0 mps 608 mmHg 80%
    06:00 +16°C° 0 mm 0 mps 609 mmHg 76%
    07:00 +17°C° 0 mm 0 mps 609 mmHg 72%
    08:00 +22°C° 0 mm 1 mps 610 mmHg 62%
    09:00 +24°C° 0 mm 1 mps 611 mmHg 53%
    10:00 +27°C° 0 mm 2 mps 612 mmHg 43%
    11:00 +27°C° 0 mm 2 mps 611 mmHg 39%
    12:00 +28°C° 0 mm 2 mps 611 mmHg 34%
    13:00 +29°C° 0 mm 2 mps 611 mmHg 30%
    14:00 +28°C° 0.2 mm 2 mps 610 mmHg 35%
    15:00 +27°C° 0.2 mm 3 mps 609 mmHg 40%
    16:00 +26°C° 0.2 mm 3 mps 608 mmHg 45%
    17:00 +25°C° 0 mm 2 mps 608 mmHg 52%
    18:00 +23°C° 0 mm 2 mps 608 mmHg 60%
    19:00 +20°C° 0 mm 2 mps 608 mmHg 68%
    20:00 +19°C° 0 mm 2 mps 608 mmHg 72%
    21:00 +20°C° 0 mm 1 mps 608 mmHg 76%
    22:00 +19°C° 0 mm 1 mps 609 mmHg 79%
    23:00 +18°C° 0 mm 1 mps 608 mmHg 81%

    18 October, Friday

    Time Temperature Precipitation Wind Pressure Humidity
    00:00 +18°C° 0 mm 1 mps 608 mmHg 82%
    01:00 +16°C° 0 mm 1 mps 608 mmHg 83%
    02:00 +16°C° 0 mm 1 mps 608 mmHg 83%
    03:00 +16°C° 0 mm 1 mps 608 mmHg 83%
    04:00 +15°C° 0 mm 1 mps 607 mmHg 83%
    05:00 +16°C° 0 mm 1 mps 608 mmHg 79%
    06:00 +18°C° 0 mm 1 mps 608 mmHg 75%
    07:00 +16°C° 0 mm 0 mps 609 mmHg 71%
    08:00 +21°C° 0 mm 1 mps 609 mmHg 60%
    09:00 +24°C° 0 mm 1 mps 610 mmHg 49%
    10:00 +26°C° 0 mm 2 mps 611 mmHg 37%
    11:00 +27°C° 0 mm 2 mps 611 mmHg 35%
    12:00 +28°C° 0 mm 2 mps 611 mmHg 33%
    13:00 +29°C° 0 mm 2 mps 611 mmHg 31%
    14:00 +28°C° 0.1 mm 3 mps 610 mmHg 35%
    15:00 +27°C° 0.1 mm 3 mps 609 mmHg 40%
    16:00 +26°C° 0.1 mm 4 mps 608 mmHg 44%
    17:00 +24°C° 0 mm 3 mps 608 mmHg 53%
    18:00 +21°C° 0 mm 2 mps 608 mmHg 62%
    19:00 +19°C° 0 mm 2 mps 608 mmHg 70%
    20:00 +18°C° 0 mm 2 mps 608 mmHg 72%
    21:00 +19°C° 0 mm 1 mps 608 mmHg 73%
    22:00 +18°C° 0 mm 1 mps 609 mmHg 75%
    23:00 +18°C° 0 mm 1 mps 608 mmHg 76%

    19 October, Saturday

    Time Temperature Precipitation Wind Pressure Humidity
    00:00 +16°C° 0 mm 1 mps 608 mmHg 77%
    01:00 +16°C° 0 mm 1 mps 607 mmHg 78%
    02:00 +16°C° 0 mm 1 mps 607 mmHg 79%
    03:00 +15°C° 0 mm 1 mps 607 mmHg 79%
    04:00 +15°C° 0 mm 1 mps 606 mmHg 79%
    05:00 +16°C° 0 mm 1 mps 607 mmHg 74%
    06:00 +16°C° 0 mm 1 mps 607 mmHg 70%
    07:00 +18°C° 0 mm 1 mps 608 mmHg 65%
    08:00 +21°C° 0 mm 1 mps 609 mmHg 55%
    09:00 +24°C° 0 mm 2 mps 610 mmHg 44%
    10:00 +26°C° 0 mm 2 mps 611 mmHg 33%
    11:00 +28°C° 0 mm 2 mps 611 mmHg 30%
    12:00 +29°C° 0 mm 3 mps 610 mmHg 26%
    13:00 +30°C° 0 mm 3 mps 610 mmHg 22%
    14:00 +29°C° 0 mm 3 mps 610 mmHg 24%
    15:00 +29°C° 0 mm 3 mps 609 mmHg 27%
    16:00 +28°C° 0 mm 3 mps 608 mmHg 29%
    17:00 +26°C° 0 mm 2 mps 608 mmHg 39%
    18:00 +23°C° 0 mm 2 mps 607 mmHg 50%
    19:00 +20°C° 0 mm 2 mps 607 mmHg 60%
    20:00 +20°C° 0 mm 1 mps 607 mmHg 62%
    21:00 +20°C° 0 mm 1 mps 608 mmHg 63%
    22:00 +17°C° 0 mm 0 mps 608 mmHg 64%
    23:00 +17°C° 0 mm 0 mps 608 mmHg 65%
    Show more